Location: Newark
(40.3500°N, 15.2333°E)
Time: 20:27:42
(UTC+00:00)

Vanguard 1 - Pass Details

Date: 28 January 2020
Orbit: 650 x 3833 km, 34.2° (Epoch: 25 February)

Event Time Altitude Azimuth Distance (km) Brightness Sun altitude
Rises 20:55:53 0° 259° (W) 3,486 13.3 -53.3°
Enters shadow 20:55:54 - 259° (W) 3,482 13.3 -53.3°
Reaches altitude 10° 20:59:23 10° 235° (SW) 2,902 - -53.9°
Maximum altitude 21:03:05 15° 203° (SSW) 2,969 - -54.5°
Drops below altitude 10° 21:07:49 10° 173° (S) 3,893 - -55.3°
Sets 21:14:04 0° 153° (SSE) 5,629 - -56.3°
